Location: ??????
(55.2000°N, 38.3000°E)
Time: 01:40:45
(UTC+00:00)

USA 267 - Pass Details

Date: 15 November 2025
Orbit: 1100 x 1108 km, 123.0° (Epoch: 21 November)

Event Time Altitude Azimuth Distance (km) Brightness Sun altitude
Rises 03:15:05 0° 68° (ENE) 3,926 7.2 -14.6°
Reaches altitude 10° 03:17:35 10° 69° (ENE) 2,966 6.4 -14.3°
Maximum altitude 03:24:09 81° 158° (SSE) 1,119 3.3 -13.3°
Drops below altitude 10° 03:30:42 10° 246° (WSW) 2,956 5.1 -12.4°
Enters shadow 03:31:26 - 246° (WSW) 3,239 5.3 -12.3°
